Flag for Germany Weather past 2 weeks in Homburg (Saar), Saarland, Germany

Now
61 °F

Passing clouds.


Feels Like: 61 °F
Forecast: 44 / 72 °F
Wind: 7 mph from Northwest

Location: Saarbruecken / Ensheim

Current Time: Jul 30, 2015 at 9:02:59 PM

Latest Report: Jul 30, 2015 at 8:20 PM


Visibility: N/A

Pressure: 30.04 "Hg

Humidity: 52%

Dew point: 43 °F

Location of Homburg (Saar)Location

Historic Weather in Homburg (Saar) — Graph

°F

Homburg (Saar) temperature yesterday

Maximum temperature yesterday: 70 °F (at 4:20 PM)
Minimum temperature yesterday: 52 °F (at 7:50 AM)
Average temperature yesterday: 58 °F

Past Weeks' High & Low Weather Summary

 TemperatureHumidityPressure
High93 °F (Jul 17, 4:50 PM)94% (Jul 25, 3:50 AM)30.12 "Hg (Jul 25, 3:50 AM)
Low45 °F (Jul 26, 5:20 AM)21% (Jul 16, 6:20 PM)29.68 "Hg (Jul 24, 8:50 PM)
Average69 °F61%29.94 "Hg
* Reported Jul 15 7:20 PM — Jul 30 7:50 PM, Homburg (Saar), Weather by CustomWeather, © 2015

Note: Actual official high and low records may vary slightly from our data, if they occured in-between our weather recording intervals... More about our weather records

Advertising

Homburg (Saar) weather history for previous 24 hours

 ConditionsComfort  
Time TempWeatherWind HumidityBarometerVisibility
7:50 PM
Thu, Jul 30
61 °FPassing clouds.8 mph48%30.04 "HgN/A
7:20 PM63 °FPassing clouds.9 mph45%30.04 "HgN/A
6:50 PM63 °FPassing clouds.13 mph45%30.04 "HgN/A
6:20 PM63 °FPassing clouds.16 mph45%30.04 "HgN/A
5:50 PM64 °FPassing clouds.16 mph46%30.01 "HgN/A
5:20 PM68 °FPassing clouds.12 mph35%30.01 "HgN/A
4:50 PM68 °FPassing clouds.14 mph35%30.01 "HgN/A
4:20 PM66 °FPassing clouds.12 mph37%30.01 "HgN/A
3:50 PM70 °FPassing clouds.9 mph31%30.01 "HgN/A
3:20 PM70 °FPassing clouds.13 mph31%30.01 "HgN/A
2:50 PM70 °FSunny.15 mph31%30.01 "Hg10 mi
2:20 PM66 °FPassing clouds.13 mph35%30.01 "HgN/A
1:50 PM66 °FSunny.18 mph35%30.01 "Hg10 mi
1:20 PM64 °FSunny.15 mph40%30.01 "Hg10 mi
12:50 PM66 °FPassing clouds.15 mph43%30.01 "HgN/A
12:20 PM66 °FPassing clouds.16 mph46%30.01 "HgN/A
11:50 AM63 °FPassing clouds.12 mph49%30.01 "HgN/A
11:20 AM63 °FPassing clouds.13 mph49%30.01 "HgN/A
10:20 AM61 °FPassing clouds.12 mph55%30.01 "HgN/A
9:50 AM59 °FPassing clouds.8 mph63%30.01 "HgN/A
9:20 AM55 °FScattered clouds.6 mph67%30.01 "HgN/A
8:50 AM55 °FScattered clouds.6 mph67%30.01 "HgN/A
8:20 AM54 °FScattered clouds.5 mph72%30.01 "HgN/A
7:50 AM52 °FScattered clouds.2 mph77%30.01 "HgN/A
7:20 AM52 °FSunny.1 mph77%30.01 "Hg10 mi
6:50 AM50 °FClear.2 mph82%30.01 "Hg10 mi
6:20 AM50 °FClear.1 mph76%29.98 "Hg10 mi
5:50 AM50 °FClear.2 mph76%29.98 "Hg10 mi
5:20 AM48 °FClear.2 mph82%29.98 "Hg10 mi
4:50 AM48 °FClear.2 mph82%29.98 "Hg10 mi
4:20 AM48 °FClear.3 mph82%29.98 "Hg10 mi
3:50 AM46 °FClear.2 mph87%29.98 "Hg10 mi
3:20 AM48 °FCool.1 mph76%29.98 "HgN/A
2:50 AM48 °FCool.1 mph71%29.98 "HgN/A
2:20 AM48 °FCool.1 mph76%29.98 "HgN/A
1:50 AM50 °FCool.1 mph71%29.98 "HgN/A
1:20 AM52 °FCool.1 mph67%29.98 "HgN/A
12:50 AM52 °FCool.2 mph67%29.98 "HgN/A
12:20 AM52 °FCool.2 mph72%29.98 "HgN/A
11:50 PM
Wed, Jul 29
54 °FCool.1 mph67%29.98 "HgN/A
11:20 PM54 °FCool.3 mph63%29.95 "HgN/A
10:50 PM55 °FClear.7 mph59%29.95 "Hg10 mi
10:20 PM57 °FClear.7 mph55%29.95 "Hg10 mi
9:50 PM59 °FSunny.6 mph48%29.95 "Hg10 mi
9:20 PM61 °FSunny.10 mph45%29.92 "Hg10 mi
Weather by CustomWeather, © 2015

See weather overviewHow to use our weather pages